Regional Weather Roundup
Issued by NWS

Home | Current Version | Previous Version | Graphics & Text | Print | Product List | Glossary On
Versions: 1 2 3 4 5 6 7 8 9 10 11 12 13 14 15 16 17 18 19 20 21 22 23 24 25 26 27 28 29 30 31 32 33 34 35 36 37 38 39 40 41 42 43 44 45 46 47 48 49 50
000
ASUS43 KLSX 210359
RWRMO

WEATHER SUMMARY FOR MISSOURI
NATIONAL WEATHER SERVICE SPRINGFIELD MO
1100 PM CDT MON OCT 20 2014

NOTE: "FAIR" INDICATES FEW OR NO CLOUDS BELOW 12,000 FEET WITH NO
       SIGNIFICANT WEATHER AND/OR OBSTRUCTIONS TO VISIBILITY.
       CURRENT SKY AND/OR WEATHER CONDITIONS ARE NOT AVAILABLE FOR
       CHILLICOTHE AND FARMINGTON.

MOZ001>031-035>038-043-044-053-054-210500-
...NORTHERN AND WESTERN MISSOURI...

CITY           SKY/WX    TMP DP  RH WIND       PRES   REMARKS
KANSAS CTY INT CLEAR     60  41  49 CALM      30.07R
KANSAS C DTWN  CLEAR     54  48  80 CALM      30.07R
LEE`S SUMMIT   CLEAR     54  43  66 CALM      30.08R
ST JOSEPH      CLEAR     44  40  85 CALM      30.08R
KIRKSVILLE     CLEAR     46  44  93 W3        30.06R

$$
MOZ066>068-077>081-088>096-101>105-210500-
...SOUTHWEST MISSOURI...

CITY           SKY/WX    TMP DP  RH WIND       PRES   REMARKS
SPRINGFIELD    CLEAR     54  51  90 CALM      30.07R
JOPLIN         CLEAR     56  55  97 CALM      30.09R

$$
MOZ032>034-039>042-045>050-055>058-069>072-210500-
...CENTRAL MISSOURI...

CITY           SKY/WX    TMP DP  RH WIND       PRES   REMARKS
COLUMBIA       CLEAR     53  43  68 CALM      30.06R
JEFFERSON CITY CLEAR     50  45  83 NW3       30.06R
ROLLA          CLEAR     49  41  74 CALM      30.05R
SEDALIA        CLEAR     57  42  57 CALM      30.08R
WHITEMAN AFB   CLEAR     51  46  80 SW2       30.07R
OSAGE BEACH    CLEAR     48  45  87 CALM      30.07R

$$
MOZ051-052-059>065-210500-
...EAST CENTRAL MISSOURI...

CITY           SKY/WX    TMP DP  RH WIND       PRES   REMARKS
ST LOUIS INTL  CLEAR     54  46  74 SW5       30.03S
SPIRIT OF STL  CLEAR     47  45  93 CALM      30.03S
ST CHARLES     CLEAR     50  46  86 CALM      30.02S

$$
MOZ072>076-082>087-097>100-106>115-210500-
...SOUTH CENTRAL AND SOUTHEAST MISSOURI...

CITY           SKY/WX    TMP DP  RH WIND       PRES   REMARKS
CAPE GIRARDEAU CLEAR     51  49  92 CALM      30.03R
FARMINGTON     CLEAR     52  45  76 CALM      30.06S
WEST PLAINS    CLEAR     55  53  93 CALM      30.07R

$$



USA.gov is the U.S. government's official web portal to all federal, state and local government web resources and services.